Wind_Speed
6 6 5 6 6 5 5 4 4 4 4 4 4 4 5 4 4 5 5 5 5 5 5 5 6 6 7 7 7 8 8 8 8 8 8 8 8 8 8 8 8 7 8
6 6 6 6 6 6 5 5 6 5 5 5 5 5 5 4 5 5 6 6 6 6 6 6 6 7 7 8 9 9 9 9 10 10 9 9 9 9 9 8 8 8 8
6 6 7 7 7 7 7 6 6 6 5 5 5 5 5 5 5 6 6 7 7 7 7 7 7 8 8 9 10 10 10 11 10 10 10 10 10 10 10 10 9 9 10
6 6 6 7 7 7 7 7 6 6 6 5 6 6 6 6 6 6 7 7 7 8 8 8 8 8 8 8 9 10 11 11 11 11 11 11 10 10 10 10 10 10 10
6 6 7 7 8 8 8 7 7 7 7 7 7 7 6 6 6 7 7 8 8 8 8 7 7 8 7 7 7 9 10 11 10 10 10 10 11 11 11 11 11 11 11
6 6 7 8 8 9 8 8 8 8 8 8 8 8 7 7 7 7 7 8 8 8 8 7 7 8 6 5 6 7 9 10 10 11 10 11 11 12 12 12 12 12 12
7 7 8 8 9 9 9 9 9 9 9 9 9 9 9 8 8 8 7 7 8 8 9 9 9 9 7 6 6 7 8 9 10 11 11 11 12 13 13 13 13 12 13
7 8 8 9 10 9 9 9 9 9 9 10 10 10 10 9 9 8 8 8 8 8 9 9 9 9 9 8 7 7 8 9 10 11 12 12 12 12 13 13 13 13 13
7 7 8 8 9 9 9 9 10 10 10 10 10 10 10 9 9 9 9 10 9 9 9 10 9 10 10 9 9 9 9 10 11 12 12 13 13 13 13 14 14 14 14
8 8 7 7 8 8 9 9 10 9 10 10 10 10 9 10 10 11 11 11 11 11 11 11 10 11 11 11 10 10 10 10 11 12 13 13 13 13 13 14 14 15 14
8 8 8 8 9 9 10 10 9 9 9 9 10 10 11 11 12 12 13 12 12 13 12 11 11 11 11 11 11 11 11 11 12 13 13 13 14 14 14 14 15 15 16
9 9 9 9 9 9 10 10 10 10 10 11 11 11 12 12 13 13 13 13 14 14 13 12 12 12 12 11 11 11 11 11 12 13 14 14 14 14 14 15 15 16 17
9 9 9 10 10 10 10 10 11 11 11 11 11 11 12 13 13 13 14 14 14 13 13 13 13 13 12 12 12 12 12 12 13 14 14 15 15 16 16 15 15 15 16
10 10 11 11 11 11 11 11 11 12 12 12 11 11 12 12 13 13 14 15 14 14 14 14 14 14 13 13 13 13 14 14 15 15 15 15 15 16 16 15 15 15 16
11 11 11 11 11 12 12 12 12 12 12 12 12 12 12 12 12 13 14 15 15 15 15 14 14 14 14 14 15 15 15 15 15 16 16 16 16 16 16 16 15 15 15
12 12 12 12 12 13 13 13 12 12 12 13 12 12 12 12 12 13 13 14 14 14 14 14 14 15 15 15 15 15 15 15 16 16 16 16 16 16 16 16 16 14 14
12 13 13 13 13 13 13 13 13 13 13 13 13 13 13 13 13 12 12 13 14 14 14 14 15 15 16 16 16 16 16 15 15 15 15 14 14 15 16 16 16 15 15
13 13 14 14 13 13 13 13 14 14 14 13 13 13 14 14 14 14 13 13 13 13 14 14 15 15 16 15 16 16 16 16 16 15 15 15 15 16 17 18 18 18 18
13 14 14 14 14 14 14 14 14 14 14 14 14 14 14 14 14 15 14 14 14 13 13 14 15 15 15 15 16 16 16 16 16 16 16 16 16 17 17 17 18 19 19
14 14 14 15 15 15 15 15 15 15 15 15 14 14 14 14 14 15 14 14 14 14 14 14 14 14 15 15 15 16 16 16 16 16 17 17 18 18 18 18 18 18 18
14 14 14 14 15 15 15 15 15 15 15 15 15 14 15 14 14 14 14 14 14 15 14 14 14 15 15 16 16 16 16 16 16 16 17 17 18 18 18 18 18 18 18
14 14 14 15 15 16 16 16 16 15 16 15 14 14 14 15 15 15 16 15 14 14 14 14 15 16 17 17 17 17 17 16 16 16 17 17 18 18 18 18 18 19 19
14 14 14 15 15 16 16 16 16 16 15 14 14 14 15 15 15 15 15 14 14 14 15 15 15 16 17 17 17 17 16 16 17 17 17 18 18 18 18 19 19 20 20
14 15 15 15 16 16 16 16 15 14 14 14 14 14 15 15 15 15 15 15 15 16 16 16 16 16 16 17 17 18 17 17 17 18 19 19 19 19 20 20 20 20 21
15 15 15 15 16 15 15 15 15 15 15 15 15 15 16 16 16 16 16 16 17 17 18 18 17 17 17 17 18 18 18 18 19 20 20 20 21 21 21 21 22 22 21
16 16 15 15 15 15 15 15 16 16 16 16 16 17 17 17 17 17 18 18 18 18 19 19 18 18 19 19 19 19 19 20 20 21 21 21 22 22 23 22 22 22 22
Wind_Direction
214 217 215 220 222 220 219 227 233 228 223 215 207 205 203 208 210 214 215 216 218 224 225 225 235 245 240 236 240 242 242 241 241 240 241 242 244 249 251 254 255 253 249
225 226 229 230 226 224 228 233 237 241 242 235 220 216 212 214 221 224 228 229 227 228 230 233 241 251 252 252 250 249 244 242 243 243 243 243 244 248 251 255 254 252 253
224 229 234 237 233 234 237 240 241 247 244 239 232 228 227 226 228 230 234 236 237 237 240 246 251 256 259 261 258 250 246 240 240 243 244 245 245 248 253 256 255 257 255
230 233 235 236 235 236 238 239 241 248 247 246 241 235 235 235 237 239 240 243 245 245 247 248 254 261 267 270 260 250 243 240 236 243 246 247 248 250 253 255 255 256 255
239 240 241 240 239 239 240 243 247 251 252 249 245 241 244 248 245 241 243 248 249 250 249 252 257 264 271 275 265 249 239 238 236 243 246 248 251 254 255 256 257 258 257
244 248 251 245 242 244 244 245 249 252 252 250 248 246 246 247 250 248 246 249 252 254 252 255 261 263 269 275 266 250 241 237 240 246 247 251 252 255 257 258 258 258 258
249 255 257 252 249 246 245 248 251 254 252 250 251 251 249 249 251 250 246 247 254 256 258 258 257 262 263 264 255 246 243 243 246 250 251 252 253 254 257 258 258 259 258
254 258 261 258 251 243 242 249 254 256 252 249 251 249 248 250 251 251 247 250 256 256 256 259 258 260 259 258 255 252 252 253 252 254 255 254 254 256 258 258 259 260 260
260 264 265 260 249 238 244 252 255 256 253 249 251 250 248 250 250 251 252 255 256 255 257 257 261 262 260 259 254 252 253 256 255 255 257 257 259 259 261 260 260 260 259
262 263 268 257 244 246 250 254 255 255 254 253 251 249 251 254 255 256 258 259 260 262 263 261 261 259 261 258 256 258 260 259 256 257 258 260 260 261 263 264 262 260 259
256 258 261 258 251 250 251 253 252 258 258 253 256 256 256 259 259 260 262 262 262 263 263 259 258 258 259 260 258 256 259 260 259 259 259 260 261 263 264 266 265 261 258
254 257 259 259 259 261 259 256 256 259 258 254 257 259 260 262 262 262 264 264 263 262 261 260 257 258 259 258 259 260 260 260 262 261 260 261 262 263 265 267 266 263 260
256 261 259 258 259 263 261 258 258 259 257 259 258 258 261 261 258 260 262 263 261 260 261 263 262 262 261 261 262 263 265 265 264 265 262 263 265 265 266 267 265 264 260
257 259 261 260 260 261 260 257 258 258 257 260 260 261 264 265 262 261 263 263 262 261 263 266 266 265 263 262 263 264 266 266 266 267 265 265 267 267 265 265 264 264 262
258 258 259 261 261 263 263 263 264 265 264 264 263 262 264 266 265 263 263 263 264 264 263 264 263 265 266 264 263 265 267 268 269 269 269 267 265 263 262 263 262 261 262
260 260 261 264 265 267 266 263 264 265 268 270 270 268 265 265 268 268 265 264 265 264 262 264 266 267 266 266 268 268 267 268 270 271 270 269 263 261 260 261 261 261 265
261 262 262 262 265 267 268 267 266 265 269 271 270 270 267 265 268 268 268 267 267 266 265 265 265 266 267 268 270 272 271 273 276 274 272 272 269 266 266 265 266 267 269
265 264 262 261 262 263 266 269 270 270 269 270 270 270 269 269 269 269 271 271 270 269 268 267 267 266 266 266 268 269 270 272 273 272 271 272 272 271 269 267 268 269 270
264 263 261 260 260 262 266 269 270 270 269 269 269 270 271 273 275 275 275 272 271 269 270 269 269 268 266 266 267 267 268 269 269 270 269 271 271 271 270 269 268 268 267
264 264 263 262 261 262 264 267 269 268 270 271 269 269 272 274 276 276 276 277 275 273 274 274 271 269 268 268 268 267 268 269 270 270 269 269 270 270 270 270 269 268 268
267 265 263 262 262 262 263 264 265 267 268 271 272 271 271 273 276 277 277 279 277 276 276 274 272 270 270 269 269 269 269 268 269 270 270 270 270 271 270 270 269 269 269
269 267 265 265 264 264 264 264 265 267 268 270 272 272 274 275 276 278 278 278 277 277 278 278 275 273 272 271 271 271 267 267 268 270 272 271 271 270 270 269 270 270 271
269 270 268 266 266 267 267 265 265 266 266 269 271 272 272 274 277 278 279 276 277 277 277 279 277 275 272 272 272 271 271 270 270 272 273 273 272 271 270 271 271 272 271
271 271 268 268 268 269 267 264 265 266 267 268 270 271 272 274 276 276 275 275 276 277 279 279 278 276 276 274 273 272 271 272 272 274 274 273 272 271 271 272 271 272 272
271 273 270 269 269 268 265 264 264 266 268 271 271 272 272 274 276 277 276 274 276 278 278 279 276 276 277 276 274 273 272 272 273 274 274 274 273 272 271 272 272 272 272
273 272 272 271 268 267 265 265 265 266 269 273 274 274 274 274 276 278 279 278 278 278 279 281 278 275 275 275 275 274 274 274 275 275 275 274 274 273 272 272 272 272 272
Height
5875 5875 5875 5875 5875 5875 5875 5875 5875 5875 5875 5875 5875 5875 5875 5875 5875 5875 5875 5875 5875 5875 5875 5875 5875 5875 5874 5874 5874 5874 5875 5875 5876 5876 5877 5877 5877 5877 5878 5877 5877 5877 5877
5874 5874 5874 5874 5874 5874 5875 5875 5875 5874 5874 5875 5875 5875 5874 5874 5874 5875 5875 5875 5875 5875 5874 5874 5873 5873 5873 5872 5871 5871 5872 5873 5874 5875 5875 5876 5876 5876 5876 5876 5876 5876 5876
5873 5873 5873 5873 5873 5873 5874 5874 5874 5874 5873 5874 5874 5874 5874 5874 5874 5874 5874 5874 5874 5874 5873 5873 5872 5872 5871 5869 5867 5866 5867 5869 5871 5873 5873 5874 5874 5874 5875 5875 5875 5874 5874
5872 5872 5872 5872 5872 5872 5872 5873 5873 5872 5873 5873 5873 5873 5873 5873 5873 5872 5872 5873 5873 5872 5872 5871 5871 5870 5868 5865 5862 5861 5863 5865 5868 5870 5871 5872 5872 5872 5873 5873 5873 5873 5873
5870 5871 5871 5871 5871 5871 5871 5871 5871 5871 5872 5872 5872 5872 5872 5872 5871 5871 5871 5871 5871 5871 5870 5870 5869 5868 5866 5862 5858 5857 5859 5862 5866 5868 5869 5870 5871 5871 5871 5871 5871 5871 5871
5869 5869 5869 5869 5869 5869 5869 5870 5870 5870 5870 5870 5870 5871 5871 5870 5870 5870 5870 5870 5870 5870 5869 5869 5868 5867 5865 5862 5859 5858 5859 5862 5865 5867 5868 5868 5868 5869 5869 5869 5868 5869 5869
5868 5867 5867 5867 5867 5867 5867 5868 5868 5869 5869 5869 5869 5869 5869 5869 5869 5868 5868 5868 5868 5868 5868 5867 5867 5866 5864 5862 5861 5860 5861 5862 5864 5865 5866 5866 5866 5866 5867 5866 5866 5866 5866
5866 5866 5865 5864 5863 5864 5865 5866 5867 5867 5867 5867 5867 5867 5867 5867 5867 5867 5867 5867 5867 5866 5866 5866 5865 5864 5863 5862 5861 5861 5862 5862 5862 5863 5863 5864 5864 5864 5864 5864 5864 5864 5863
5864 5864 5863 5861 5860 5862 5863 5864 5865 5865 5865 5865 5865 5865 5865 5865 5865 5865 5865 5865 5865 5865 5864 5864 5864 5863 5862 5861 5861 5860 5860 5860 5861 5861 5861 5862 5862 5862 5862 5861 5861 5861 5861
5863 5862 5862 5861 5860 5861 5862 5863 5863 5863 5863 5863 5863 5863 5864 5864 5864 5863 5863 5863 5863 5863 5862 5862 5862 5861 5861 5860 5859 5859 5859 5859 5859 5859 5859 5859 5859 5859 5859 5859 5858 5858 5858
5861 5861 5861 5860 5860 5860 5861 5861 5861 5862 5861 5861 5861 5861 5861 5861 5861 5861 5861 5861 5861 5861 5860 5860 5859 5859 5859 5858 5858 5857 5857 5857 5857 5857 5857 5857 5857 5857 5856 5856 5855 5855 5855
5860 5860 5859 5859 5859 5859 5859 5860 5860 5860 5859 5859 5859 5859 5859 5859 5858 5858 5858 5858 5858 5858 5858 5858 5857 5857 5857 5856 5856 5855 5855 5855 5854 5854 5854 5854 5854 5854 5853 5853 5852 5852 5852
5858 5858 5858 5858 5858 5858 5858 5858 5858 5858 5857 5857 5857 5856 5856 5856 5856 5856 5856 5856 5855 5855 5855 5855 5854 5854 5854 5853 5853 5853 5852 5852 5852 5851 5851 5851 5851 5850 5850 5850 5849 5848 5848
5856 5856 5856 5856 5856 5856 5856 5856 5856 5856 5855 5855 5855 5854 5854 5853 5853 5853 5853 5853 5852 5852 5852 5852 5851 5851 5851 5850 5850 5850 5850 5849 5849 5848 5847 5847 5847 5847 5846 5846 5846 5845 5845
5853 5854 5854 5854 5854 5854 5854 5853 5853 5853 5853 5852 5852 5852 5851 5851 5850 5850 5850 5849 5849 5849 5849 5848 5848 5848 5847 5847 5847 5847 5846 5846 5845 5845 5844 5844 5844 5843 5843 5843 5842 5842 5842
5851 5851 5851 5851 5851 5851 5851 5851 5850 5850 5850 5850 5849 5849 5848 5848 5848 5847 5847 5847 5846 5846 5845 5845 5845 5845 5844 5844 5844 5843 5843 5843 5842 5841 5841 5840 5840 5840 5839 5839 5838 5838 5838
5848 5848 5848 5848 5848 5848 5848 5848 5848 5848 5847 5847 5846 5846 5845 5845 5845 5845 5844 5843 5843 5843 5842 5842 5841 5841 5841 5840 5840 5840 5840 5839 5838 5838 5837 5837 5836 5836 5836 5835 5835 5834 5834
5845 5845 5845 5845 5845 5845 5845 5845 5845 5844 5844 5844 5843 5843 5842 5842 5841 5841 5841 5840 5840 5839 5839 5838 5838 5837 5837 5837 5837 5836 5836 5835 5835 5834 5834 5833 5833 5832 5832 5832 5831 5831 5830
5842 5842 5842 5842 5842 5842 5842 5842 5842 5841 5841 5840 5840 5840 5839 5839 5838 5838 5837 5836 5836 5835 5835 5834 5834 5833 5833 5833 5833 5833 5832 5832 5831 5831 5830 5830 5829 5829 5828 5828 5827 5827 5826
5838 5838 5838 5838 5839 5839 5839 5839 5839 5838 5838 5837 5837 5836 5836 5836 5835 5834 5834 5833 5832 5832 5831 5830 5830 5830 5830 5830 5829 5829 5828 5828 5828 5827 5827 5826 5825 5824 5824 5823 5822 5822 5821
5835 5835 5835 5835 5835 5835 5835 5835 5835 5835 5834 5834 5833 5833 5833 5832 5832 5831 5831 5830 5829 5828 5827 5827 5826 5826 5826 5826 5826 5825 5825 5824 5824 5823 5822 5822 5821 5820 5819 5818 5818 5817 5817
5831 5831 5831 5831 5831 5831 5831 5831 5831 5831 5831 5830 5830 5830 5829 5829 5828 5828 5827 5826 5825 5825 5824 5823 5822 5822 5821 5821 5821 5821 5821 5821 5819 5819 5818 5817 5816 5815 5815 5814 5814 5813 5812
5828 5828 5828 5827 5827 5827 5827 5827 5827 5827 5827 5827 5827 5826 5826 5825 5825 5824 5823 5823 5822 5821 5820 5819 5819 5818 5817 5817 5817 5817 5816 5816 5815 5815 5814 5812 5811 5811 5810 5810 5809 5808 5808
5825 5824 5824 5824 5823 5823 5823 5823 5823 5823 5823 5823 5823 5822 5822 5821 5821 5820 5820 5819 5819 5818 5817 5816 5815 5814 5813 5813 5812 5812 5812 5811 5811 5810 5809 5808 5807 5806 5805 5805 5804 5804 5803
5821 5821 5820 5820 5819 5819 5819 5819 5819 5819 5819 5819 5819 5818 5818 5817 5817 5816 5815 5815 5814 5813 5812 5811 5810 5810 5809 5808 5808 5807 5807 5806 5805 5805 5804 5803 5802 5801 5800 5799 5799 5798 5798
5817 5817 5816 5816 5815 5815 5815 5815 5815 5815 5815 5814 5814 5814 5813 5813 5812 5811 5811 5810 5809 5809 5808 5806 5806 5805 5804 5803 5803 5802 5802 5801 5800 5799 5798 5797 5796 5795 5794 5794 5793 5793 5792